Sergeant Bluff, IA

3:51 PM CST on February 25, 2017 (GMT -0600)
Sioux Gateway

Weather History for KSUX - September, 2013

Change the Weather History Date:

Monday, September 30, 2013

  Actual Average Record
Temperature  
Mean Temperature 70 °F 57 °F  
Max Temperature 86 °F 71 °F 92 °F (1897)
Min Temperature 54 °F 44 °F 27 °F (1895)
Degree Days  
Heating Degree Days 0 9  
Month to date heating degree days 45 133  
Since 1 July heating degree days 65 147  
Cooling Degree Days 5 1  
Month to date cooling degree days 152 84  
Year to date cooling degree days 953 861  
Growing Degree Days 20 (Base 50)    
Moisture  
Dew Point 47 °F    
Average Humidity 49    
Maximum Humidity 72    
Minimum Humidity 25    
Precipitation  
Precipitation 0.00 in 0.09 in 1.43 in (1911)
Month to date precipitation 1.44 2.96  
Year to date precipitation 21.57 23.50  
Snow  
Snow 0.00 in 0.00 in 0.40 in (1961)
Month to date snowfall 0.0 0.0  
Since 1 July snowfall 0.0 0.0  
Since 1 September snowfall 0.0 0.0  
Snow Depth 0.00 in    
Sea Level Pressure  
Sea Level Pressure 29.71 in    
Wind  
Wind Speed 12 mph (South)    
Max Wind Speed 23 mph    
Max Gust Speed 29 mph    
Visibility 10 miles    
Events      
T = Trace of Precipitation, MM = Missing Value Source: NWS Daily Summary

Daily Weather History Graph

Daily Weather History Graph

Search for Another Location

Airport or City:

Trip Planner

Search our weather history database for the weather conditions in past years. The results will help you decide how hot, cold, wet, or windy it might be!

Date:

Astronomy

Sep. 30, 2013 Rise Set
Actual Time 7:21 AM CDT 7:08 PM CDT
Civil Twilight 6:53 AM CDT 7:36 PM CDT
Nautical Twilight 6:21 AM CDT 8:08 PM CDT
Astronomical Twilight 5:48 AM CDT 8:41 PM CDT
Moon 2:55 AM CDT (9/30) 4:43 PM CDT (9/30)
Length of Visible Light 12h 42m
Length of Day
11h 46m
Waning Crescent, 19% of the Moon is Illuminated
Sep 30
Waning Crescent
Oct 4
New
Oct 11
First Quarter
Oct 18
Full
Oct 26
Last Quarter

Hourly Weather History & Observations

Time (CDT) Temp. Dew Point Humidity Pressure Visibility Wind Dir Wind Speed Gust Speed Precip Events Conditions
12:52 AM 63.0 °F 44.1 °F 50% 29.81 in 10.0 mi South 13.8 mph - N/A   Clear
1:52 AM 63.0 °F 45.0 °F 52% 29.80 in 10.0 mi South 12.7 mph 24.2 mph N/A   Clear
2:52 AM 57.0 °F 46.0 °F 67% 29.78 in 10.0 mi SE 8.1 mph 19.6 mph N/A   Clear
3:52 AM 55.9 °F 46.0 °F 69% 29.77 in 10.0 mi SE 9.2 mph 19.6 mph N/A   Clear
4:52 AM 55.0 °F 46.9 °F 74% 29.76 in 10.0 mi SE 10.4 mph - N/A   Clear
5:52 AM 55.9 °F 46.0 °F 69% 29.75 in 10.0 mi SE 12.7 mph - N/A   Clear
6:52 AM 55.0 °F 46.9 °F 74% 29.74 in 10.0 mi SE 13.8 mph - N/A   Clear
7:52 AM 55.9 °F 46.0 °F 69% 29.75 in 10.0 mi SSE 10.4 mph - N/A   Clear
8:52 AM 57.0 °F 48.0 °F 72% 29.74 in 10.0 mi ESE 6.9 mph - N/A   Clear
9:52 AM 64.0 °F 46.9 °F 54% 29.73 in 10.0 mi South 11.5 mph - N/A   Clear
10:52 AM 69.1 °F 48.0 °F 47% 29.72 in 10.0 mi SW 17.3 mph 21.9 mph N/A   Clear
11:52 AM 73.9 °F 48.0 °F 40% 29.70 in 10.0 mi SSW 13.8 mph - N/A   Clear
12:52 PM 78.1 °F 48.0 °F 35% 29.69 in 10.0 mi South 12.7 mph - N/A   Clear
1:52 PM 82.0 °F 46.9 °F 29% 29.67 in 10.0 mi South 13.8 mph - N/A   Clear
2:52 PM 84.9 °F 46.0 °F 26% 29.65 in 10.0 mi South 19.6 mph 24.2 mph N/A   Clear
3:52 PM 84.9 °F 46.0 °F 26% 29.63 in 10.0 mi SSW 17.3 mph 27.6 mph N/A   Clear
4:52 PM 86.0 °F 46.9 °F 26% 29.62 in 10.0 mi SSW 13.8 mph 25.3 mph N/A   Clear
5:52 PM 82.9 °F 46.9 °F 28% 29.62 in 10.0 mi SSW 11.5 mph - N/A   Clear
6:52 PM 79.0 °F 48.0 °F 34% 29.63 in 10.0 mi South 12.7 mph - N/A   Clear
7:52 PM 75.0 °F 50.0 °F 41% 29.65 in 10.0 mi South 9.2 mph - N/A   Clear
8:52 PM 73.9 °F 50.0 °F 43% 29.67 in 10.0 mi South 11.5 mph - N/A   Clear
9:52 PM 73.0 °F 51.1 °F 46% 29.67 in 10.0 mi South 12.7 mph 19.6 mph N/A   Clear
10:52 PM 71.1 °F 51.1 °F 49% 29.69 in 10.0 mi South 13.8 mph 21.9 mph N/A   Clear
11:52 PM 66.9 °F 51.1 °F 57% 29.69 in 10.0 mi SSE 5.8 mph - N/A   Clear